Погода в Вологде

Хотите узнать прогноз погоды в Вологде? Тогда Вам сюда: Погода в Вологде

Поиск расширенной информации на нашем сайте:

Полезная информация:

Новости сайта



02.01.2020
Опубликован Долгосрочный прогноз погоды по городам России и ближнего зарубежья на январь 2020 года.
Карты: Прогноз на январь и февраль 2020 года, Сравнение прогнозируемой аномалии приземной температуры воздуха на январь 2020 года по разным моделям.




Погода в Вологде - сегодня

Время (UTC), дата Ветер
(°,м/с) 
Видим.   Явления Облачность Т
(°С)
Тd
(°С)
f(%) Тe
(°С)
Pmin
(гПа)
dP
(гПа)
Po
(мм)
O2
(г/м3)
Тmin Tmax R s Состояние
почвы
21 15.01.22 320 (СЗ) 6{12}  20000 м  позёмок{ливн. осадки}  8/8 600 м 
[Sc]
-3.8 -6.1 84 -8  997  1.8  736  301           
00 16.01.22 320 (СЗ) 5{10}  10 км  слаб. ливневой снег  10/10 480 м кучево-дожд. 
[Cb cap]
-4.2 -6.3 85 -8  999.7  2.6  737  302           
03 16.01.22 320 (СЗ) 5{10}  20000 м  позёмок{ливн. осадки}  8/6 600 м кучево-дожд., средняя 
[Cb cap|Ac trans]
-6 -8.3 84 -10  1000.7  0.9  738  305  -6.1    0.0  37  равномерный
сухой снег
100% 
06 16.01.22 310 (СЗ) 2{10}  20000 м  {ливн. осадки}  8/1 600 м средняя, верхняя 
[Sc|Ac trans|Ci fib]
-9.7 -11.6 86 -11  1003.7  2.7  740  310  -9.9         
09 16.01.22 290 (З) 20000 м    9/9 2000 м средняя 
[Ac trans]
-7.6 -10 83 -9  1003.6  740  308           
12 16.01.22 240 (ЮЗ) 20000 м    10/10 540 м 
[Sc]
-6.2 -8.6 83 -8  1001.8  -1.7  739  305           
15 16.01.22 210 (ЮЗ) 4000 м  снег  10/8 360 м средняя 
[Frnb|As op]
-5.9 -7.1 91 -9  998.7  -3  737  304    -5.4  0.5     
18 16.01.22 230 (ЮЗ) 20000 м  {снег}  10/10 630 м 
[Sc]
-4.7 -6.7 86 -8  994.9  -3.6  734  302           
21 16.01.22 230 (ЮЗ) 20000 м    10/10 480 м 
[Sc]
-4.5 -6.4 87 -8  992.2  -2.7  732  301           
00 17.01.22 200 (Ю) 20000 м    10/10 500 м 
[Sc]
-4 -5.4 90 -7  988.3  -3.8  729  299           
03 17.01.22 200 (Ю) 10 км  слаб. снег  10/5 300 м средняя 
[Frnb|As op]
-3.5 -4.6 92 -6  984.9  -3.3  727  297  -5.9    0.5  37  равномерный
сухой снег
100% 
06 17.01.22 200 (Ю) 10 км  слаб. снег  10/8 330 м средняя 
[Frnb|As op]
-2.9 -4.2 91 -6  982.2  -2.5  725  296           
09 17.01.22 200 (Ю) 4000 м  снег  10/8 330 м средняя 
[Frnb|As op]
-2.4 -3.5 92 -4  982.1  -0.2  725  295           
12 17.01.22 190 (Ю) 1000 м  сильн. снег  10/10 300 м 
[Frnb|Ns]
-2.7 -3.1 97 -4  981.7  -0.4  724  295           
15 17.01.22 200 (Ю) 1000 м  сильн. снег  10/10 300 м 
[Frnb|Ns]
-3.4 -3.7 98 -5  981.8  0.1  724  296    -2.4     
18 17.01.22 210 (ЮЗ) 10 км  слаб. снег  10/10 400 м 
[Sc]
-3.8 -4.2 97 -3  983.7  1.8  726  297           
21 17.01.22 230 (ЮЗ) 10 км  ледяной дождь (гололёд){снег} [диам. гололёда 0 мм]  10/8 400 м средняя 
[Frnb|As op]
-3.5 -3.6 99 -3  985.9  2.2  727  297           
00 18.01.22 310 (СЗ) 10 км  слаб. снег [диам. гололёда 0 мм]  10/10 800 м 
[Sc]
-4.2 -4.5 98 -5  989.5  3.5  730  299           
03 18.01.22 320 (СЗ) 10 км  слаб. снег  10/10 840 м 
[Sc]
-5.7 -8.1 83 -8  994.1  4.4  733  303  -5.7    0.4  39  равномерный
сухой снег
100% 
06 18.01.22 310 (СЗ) 20000 м  в посл. час снег  10/10 630 м 
[Sc]
-6.3 -8.6 84 -9  997.6  3.4  736  304  -6.4         
09 18.01.22 300 (СЗ) 10 км  слаб. снег  10/8 600 м средняя 
[Sc|As op]
-6 -8.3 84 -10  1001.1  3.5  738  305           
12 18.01.22 300 (СЗ) 10 км  слаб. снег  10/8 420 м средняя 
[Frnb|As op]
-6.2 -8.6 83 -10  1003.9  2.7  740  306           
15 18.01.22 290 (З) 4{10}  10 км  слаб. снег  10/8 480 м средняя 
[Frnb|As op]
-8 -10.5 82 -12  1007.8  3.7  743  310    -5.6  0.1     
18 18.01.22 290 (З) 10 км  слаб. снег  10/10 2000 м 
[Ac As]
-9 -11.2 84 -13  1008.9  1.1  744  311           
21 18.01.22 290 (З) 20000 м  {снег}  4/4 2000 м средняя 
[Ac trans]
-9.6 -11.6 85 -11  1011  746  312           
Время (UTC), дата Ветер
(°,м/с) 
Видим.   Явления Облачность Т
(°С)
Тd
(°С)
f(%) Тe
(°С)
Pmin
(гПа)
dP
(гПа)
Po
(мм)
O2
(г/м3)
Тmin Tmax R s Состояние
почвы

Для получения пояснительной информации подведите курсор к названию столбца.

ПОГОДА в Вологде - архив

Всё, что Вы хотите узнать о погоде в Вологде - удобно и подробно!

Выберите нужную дату (начиная с 1 января 2019* года) и нажмите кнопку "Найти".
Будут отображены архивные сводки погоды по пункту Вологда, начиная с указанной даты.


Отображать данные в формате CSV (для использования в таблицах Excel)


Внимание! Наш архив погоды предназначен исключительно для личного некоммерческого использования в познавательных целях. Если Вам необходимы официальные справки о состоянии погоды (для производственных, юридических, коммерческих и т.п. целей), обращайтесь в органы Росгидромета.

*Примечание: данная дата относится к архиву по метеостанциям СССР (Россия, СНГ, Балтия).
Архив по метеостанциям Зарубежной Европы и Азии (кроме Китая) хранится 10 дней, по другим регионам земного шара (Китай, Африка, Америка, Австралия, Океания) - 1 день.

Вологда - район местоположения метеостанции


Название, широта, долгота, высота метеостанции:
Вологда (город) 59.3°ш. 39.9°д. 130 м над ур. моря [Российская Федерация]

Дополнительная информация

В oтличие oт бoльшинства пoгoдных сайтoв мы публикуем пoдрoбную метеoинфoрмацию в детальнoм прoфессиoнальнoм фoрмате.

Характеристики температуры и влажнoсти вoздуха измеряются на высoте 2 м в тени вдали oт зданий и деревьев.
Скoрoсть ветра измеряется на высoте 10 м (на урoвне рoста челoвека скoрoсть ветра ниже в 1.5-2 раза). Если метеoстанция нахoдится в гoрoде или в лесу, тo скoрoсть ветра занижена на 2-4 м/с пo сравнению с oткрытым местoм. Скoрoсть ветра над акватoриями крупных рек и oзёр, а также на вершинах хoлмoв на 2-5 м/с выше, чем в oбычных услoвиях.
Атмoсфернoе давление в разных тoчках местнoсти мoжет значительнo oтличаться oт давления на метеoстанции, в зависимoсти oт услoвий рельефа (при пoдъёме на 10 м давление пoнижается примернo на 1 мм рт.ст.).